[[{"header":{"parameterUnit":"m.s-1","parameterCategory":1,"la1":30.2991,"la2":30.254,"lo1":-89.0895,"lo2":-89.0444,"dy":0.0017,"dx":0.0017,"nx":28,"ny":28,"refTime":"2026-02-26T09:00:00:Z","depth":0,"parameterNumber":2,"parameterNumberName":"U-component_of_WINDS"},"data":[0,0,0,0,0,0,0,0,0,0,0,0,0,0,0,0,0,0,0,0,0,0,0,0,0,0,0,0,0,0,0,0,0,0,0,0,0,0,0,0,0,0,0,0,0,0,0,0,0,0,0,0,0,0,0,0,0,0,0.9029,0.9029,0,0.9086,0.9087,0.9088,0.9082,0.9081,0.908,0.9079,0.914,0.9143,0.9145,0,0,0,0,0,0,0,0,0,0,0,0,0,0.8915,0.8917,0.9028,0.9029,0.903,0.9086,0.9087,0.9088,0.9082,0.9081,0.9079,0.9078,0.9139,0.9142,0.9145,0,0,0,0,0,0,0,0,0,0,0,0,0,0.8968,0.8918,0.9028,0.9034,0.9035,0.9086,0.9087,0.9088,0.9082,0.9081,0.9079,0.9078,0.9138,0.9142,0.9146,0.9196,0,0,0.9157,0.9159,0,0,0,0,0,0,0,0,0.8965,0.8972,0.9032,0.9033,0.9035,0.9075,0.9069,0.9124,0.9082,0.9064,0.9079,0.9077,0.912,0.9125,0.9139,0.9199,0.9202,0.9157,0.916,0.9161,0.9162,0,0,0,0,0,0,0,0.8961,0.8969,0.9051,0.9033,0.9035,0.9034,0.904,0.908,0.9099,0.9066,0.9065,0.9072,0.912,0.9135,0.914,0.9202,0.9157,0.9161,0.9163,0.9164,0.9308,0.9309,0,0,0,0,0,0,0.8956,0.8966,0.905,0.9053,0.8995,0.9037,0.9044,0.9064,0.9099,0.9102,0.9073,0.9072,0.913,0.9136,0.9142,0.9205,0.9161,0.9165,0.9167,0.9306,0.9308,0.931,0,0,0,0,0,0,0.8953,0.8963,0.9047,0.901,0.902,0.904,0.9063,0.9066,0.9081,0.9104,0.9108,0.9085,0.9129,0.9137,0.9183,0.9207,0.9166,0.917,0.9304,0.9307,0.9309,0.9329,0,0,0,0,0,0,0.895,0.8962,0.8981,0.901,0.9022,0.9086,0.9064,0.9068,0.9087,0.9085,0.9116,0.912,0.9128,0.9177,0.9187,0.9211,0.9173,0.9302,0.9305,0.9308,0.9326,0.9331,0.9336,0,0,0,0,0,0.8946,0.8985,0.8982,0.8992,0.9046,0.9087,0.9095,0.9103,0.9089,0.9108,0.9124,0.9119,0.9202,0.9182,0.9192,0.9218,0.9301,0.9305,0.9308,0.9324,0.933,0.9336,0,0,0,0,0,0,0.8959,0.8989,0.8986,0.9035,0.9059,0.9086,0.9111,0.9109,0.9138,0.9135,0.9145,0.9152,0.9198,0.9213,0.919,0.9269,0.925,0.9256,0.9258,0.9265,0.927,0.9265,0.9176,0,0,0,0,0,0.8967,0.8997,0.9022,0.9063,0.9075,0.9091,0.9109,0.9114,0.9139,0.9149,0.9167,0.9192,0.9224,0.9245,0.9276,0.9328,0.9335,0.9351,0.9356,0.936,0.9365,0.9394,0.9402,0.9322,0.9321,0.9321,0,0,0.8985,0.9005,0.9024,0.9066,0.9085,0.9117,0.91,0.9134,0.9158,0.9154,0.9199,0.9213,0.9242,0.9291,0.9314,0.9305,0.9389,0.9364,0.9367,0.937,0.9399,0.9406,0.9413,0.9324,0.9323,0.9323,0,0,0.9034,0.9052,0.9088,0.9107,0.9136,0.9146,0.9155,0.9183,0.9192,0.9237,0.9235,0.9264,0.9318,0.9339,0.9357,0.9414,0.9411,0.9424,0.945,0.9479,0.9485,0.9491,0.9512,0.952,0.9429,0.9429,0.9429,0,0.9053,0.91,0.9107,0.9142,0.9161,0.9159,0.9196,0.9215,0.9252,0.9265,0.9254,0.9323,0.9342,0.9397,0.9411,0.9425,0.9436,0.9421,0.9483,0.9489,0.9495,0.9515,0.9523,0.943,0.943,0.943,0.943,0,0.9122,0.9156,0.9182,0.9217,0.9239,0.9275,0.9289,0.931,0.9312,0.9324,0.937,0.9393,0.9428,0.9441,0.9444,0.9496,0.949,0.9481,0.9462,0.9504,0.9523,0.9531,0.9432,0.9431,0.9431,0.9431,0,0,0.9181,0.922,0.923,0.9247,0.9278,0.9304,0.934,0.9374,0.9393,0.9419,0.945,0.9496,0.9488,0.9508,0.9513,0.9539,0.9584,0.9527,0.9528,0.9537,0.9644,0.9651,0.966,0.9582,0.9583,0.9584,0.9642,0,0.9234,0.9298,0.9305,0.9362,0.9393,0.9391,0.9423,0.9446,0.9458,0.9487,0.9501,0.9534,0.952,0.9532,0.9557,0.9573,0.9605,0.9569,0.9612,0.9613,0.9606,0.967,0.9677,0.9731,0.9649,0.9651,0.9652,0,0.9304,0.9332,0.9392,0.9419,0.9433,0.9461,0.9493,0.9521,0.9547,0.9554,0.9577,0.9579,0.9617,0.9595,0.9649,0.9624,0.9642,0.9652,0.9655,0.966,0.9636,0.9678,0.9748,0.9756,0.9663,0.9662,0.9662,0,0.9342,0.9394,0.9437,0.9451,0.9484,0.9504,0.9519,0.9544,0.9564,0.9593,0.9606,0.9639,0.9657,0.9682,0.9693,0.9677,0.9747,0.9726,0.9755,0.9754,0.977,0.9769,0.9845,0.978,0.978,0.978,0.978,0,0.9401,0.9438,0.9455,0.9481,0.9523,0.9531,0.9573,0.9587,0.9609,0.9639,0.9639,0.9667,0.9679,0.971,0.9719,0.9762,0.977,0.9778,0.978,0.9778,0.9777,0.9791,0.9788,0.9782,0.9782,0.9781,0.9781,0,0.945,0.9463,0.951,0.9537,0.9545,0.9575,0.9599,0.9625,0.9636,0.9674,0.9684,0.9702,0.9738,0.9751,0.9795,0.9801,0.9851,0.985,0.9842,0.9843,0.9871,0.9869,0.9959,0.9972,0.9898,0.9899,0.9899,0,0.9487,0.9516,0.9546,0.9566,0.9582,0.9613,0.9634,0.9644,0.9665,0.9698,0.972,0.9756,0.9784,0.9842,0.986,0.9893,0.9893,0.9922,0.9898,0.9896,0.9895,0.9893,0.9897,0.9927,0.9928,0.9929,0.9929,0,0.9551,0.9557,0.9586,0.9618,0.9643,0.9669,0.9694,0.971,0.9724,0.9748,0.9784,0.9807,0.9851,0.9887,0.9921,0.9937,0.9936,0.9936,0.9945,0.9944,0.9939,0.9943,0.9856,0.9935,0.9934,0.9934,0.9933,0.9933,0.9596,0.9622,0.9648,0.9681,0.9701,0.9724,0.975,0.9765,0.9796,0.9832,0.9836,0.9876,0.9902,0.9948,0.9966,0.9997,0.9989,1.0001,1.0005,1.0008,1.001,0.9933,1.0003,1.0003,1.0003,1.0003,1.0003,0,0.9662,0.9678,0.9709,0.9744,0.977,0.9766,0.9794,0.9816,0.9851,0.9875,0.9903,0.9946,0.998,1.0001,1.0036,1.0057,1.0057,1.0066,1.0065,1.0069,1.0015,1.0004,1.0065,1.0065,1.0065,1.0065,1.0065,1.0065,0.9699,0.9742,0.975,0.9804,0.982,0.9858,0.9875,0.9897,0.9916,0.9963,0.9992,1.0005,1.0028,1.0065,1.0097,1.0102,1.0115,1.0125,1.0129,1.0079,1.0072,1.0066,1.0057,1.0127,1.0127,1.0181,1.0181,1.0182]},{"header":{"parameterUnit":"m.s-1","parameterCategory":1,"la1":30.2991,"la2":30.254,"lo1":-89.0895,"lo2":-89.0444,"dy":0.0017,"dx":0.0017,"nx":28,"ny":28,"refTime":"2026-02-26T09:00:00:Z","depth":0,"parameterNumber":3,"parameterNumberName":"V-component_of_WINDS"},"data":[0,0,0,0,0,0,0,0,0,0,0,0,0,0,0,0,0,0,0,0,0,0,0,0,0,0,0,0,0,0,0,0,0,0,0,0,0,0,0,0,0,0,0,0,0,0,0,0,0,0,0,0,0,0,0,0,0,0,3.6639,3.664,0,3.6749,3.6751,3.6752,3.6756,3.6755,3.6754,3.6752,3.6865,3.6869,3.6873,0,0,0,0,0,0,0,0,0,0,0,0,0,3.6431,3.6435,3.6639,3.664,3.6642,3.6749,3.6751,3.6752,3.6756,3.6755,3.6753,3.6752,3.6863,3.6868,3.6873,0,0,0,0,0,0,0,0,0,0,0,0,0,3.6529,3.6436,3.6639,3.6657,3.6659,3.6749,3.6751,3.6753,3.6757,3.6755,3.6753,3.6751,3.6862,3.6868,3.6874,3.6953,0,0,3.6893,3.6896,0,0,0,0,0,0,0,0,3.6524,3.6537,3.6653,3.6656,3.6659,3.6737,3.6719,3.682,3.6757,3.672,3.6752,3.675,3.6824,3.6833,3.6858,3.6958,3.6963,3.6894,3.6898,3.69,3.6902,0,0,0,0,0,0,0,3.6517,3.6532,3.6683,3.6654,3.6658,3.6659,3.6671,3.6738,3.6781,3.6723,3.6723,3.6737,3.6825,3.6852,3.6861,3.6964,3.6894,3.6899,3.6903,3.6906,3.7136,3.7138,0,0,0,0,0,0,3.6507,3.6527,3.6679,3.6686,3.6585,3.6665,3.6678,3.6714,3.6781,3.6789,3.6738,3.6736,3.6842,3.6853,3.6865,3.6963,3.69,3.6906,3.691,3.7134,3.7136,3.7139,0,0,0,0,0,0,3.6502,3.652,3.6675,3.6607,3.6626,3.667,3.6711,3.6717,3.6744,3.6792,3.68,3.6758,3.6841,3.6856,3.6931,3.6967,3.6909,3.6915,3.7131,3.7135,3.7138,3.7159,0,0,0,0,0,0,3.6496,3.6519,3.6549,3.6607,3.663,3.6739,3.6713,3.6721,3.6755,3.6754,3.6813,3.6821,3.6841,3.6922,3.6938,3.6974,3.692,3.7128,3.7133,3.7137,3.7155,3.7162,3.7169,0,0,0,0,0,3.6489,3.655,3.6551,3.6569,3.6669,3.6741,3.6754,3.6777,3.6758,3.6789,3.682,3.6819,3.696,3.6929,3.6947,3.6987,3.7126,3.7131,3.7136,3.7152,3.7161,3.7168,0,0,0,0,0,0,3.6494,3.6558,3.6559,3.6641,3.6686,3.6742,3.6782,3.6785,3.6836,3.6833,3.6857,3.6871,3.6946,3.6973,3.6938,3.7067,3.7041,3.705,3.7047,3.7055,3.7062,3.7055,3.6925,0,0,0,0,0,3.6505,3.6559,3.6611,3.6678,3.6701,3.6738,3.677,3.6783,3.683,3.6849,3.6886,3.6932,3.6987,3.7022,3.7075,3.7158,3.7172,3.7194,3.7201,3.7206,3.7214,3.7262,3.7273,3.7156,3.7156,3.7156,0,0,3.6528,3.6569,3.6602,3.6681,3.6717,3.6773,3.6753,3.6813,3.6854,3.6858,3.6933,3.6961,3.7013,3.7094,3.7131,3.7119,3.725,3.7213,3.7217,3.7222,3.7269,3.728,3.7289,3.716,3.7159,3.7158,0,0,3.6598,3.6634,3.6695,3.6732,3.6788,3.6812,3.6826,3.6882,3.6901,3.6976,3.6981,3.703,3.7124,3.7162,3.7193,3.7279,3.728,3.7295,3.7331,3.7378,3.7387,3.7395,3.7427,3.7438,3.7302,3.7302,3.7303,0,3.662,3.6704,3.6726,3.6786,3.6821,3.6827,3.6889,3.6924,3.6994,3.7018,3.7003,3.7122,3.7158,3.7248,3.7269,3.7293,3.7312,3.7289,3.7384,3.7392,3.74,3.7432,3.7443,3.7304,3.7304,3.7304,3.7304,0,3.6728,3.6786,3.6828,3.6897,3.6936,3.6997,3.7028,3.7066,3.7075,3.7101,3.7178,3.7221,3.7283,3.7305,3.7315,3.7397,3.7388,3.7378,3.7353,3.7413,3.7443,3.7454,3.7306,3.7306,3.7305,3.7305,0,0,3.6806,3.6886,3.6901,3.6933,3.6995,3.704,3.7101,3.7163,3.7195,3.7243,3.7295,3.7375,3.7367,3.7402,3.7416,3.7456,3.7524,3.7442,3.7444,3.7457,3.7619,3.7627,3.764,3.7524,3.7526,3.7528,3.7615,0,3.6884,3.6994,3.7015,3.711,3.7165,3.7172,3.7226,3.7269,3.7295,3.7345,3.7373,3.743,3.7413,3.7435,3.7475,3.7507,3.7557,3.7501,3.7574,3.7577,3.7563,3.7656,3.7665,3.7745,3.7626,3.7628,3.763,0,3.699,3.7042,3.7143,3.7199,3.7223,3.727,3.7329,3.7377,3.7427,3.7442,3.7483,3.7493,3.7557,3.7527,3.7616,3.7578,3.7609,3.7629,3.7632,3.7642,3.7608,3.7669,3.777,3.7783,3.7648,3.7646,3.7645,0,3.7039,3.7134,3.7207,3.7233,3.73,3.7333,3.7362,3.741,3.7447,3.7498,3.7522,3.7579,3.7612,3.7656,3.7681,3.7657,3.7769,3.7741,3.7785,3.7785,3.781,3.7809,3.792,3.7827,3.7827,3.7826,3.7826,0,3.7126,3.7188,3.723,3.7275,3.7345,3.7369,3.7437,3.7466,3.7509,3.756,3.7568,3.7616,3.7645,3.7697,3.7717,3.7789,3.7803,3.7818,3.7823,3.7819,3.7817,3.7841,3.7837,3.783,3.7829,3.7828,3.7828,0,3.7193,3.7223,3.7304,3.736,3.7376,3.7425,3.7474,3.7518,3.7543,3.7608,3.7624,3.7664,3.7726,3.7755,3.7831,3.7845,3.7927,3.7927,3.7911,3.7913,3.7956,3.7952,3.8088,3.8108,3.8,3.8001,3.8001,0,3.7247,3.7295,3.7357,3.7392,3.7423,3.7479,3.7516,3.7542,3.758,3.7641,3.7678,3.774,3.7792,3.789,3.7926,3.7985,3.7988,3.8031,3.7996,3.7991,3.7991,3.7988,3.7994,3.8038,3.8039,3.804,3.804,0,3.7341,3.7354,3.7407,3.7467,3.7511,3.7559,3.7606,3.7634,3.7667,3.771,3.7774,3.7813,3.7892,3.7954,3.8015,3.8045,3.8049,3.8051,3.8064,3.8061,3.8051,3.8059,3.793,3.8048,3.8047,3.8047,3.8046,3.8046,3.7405,3.7448,3.7499,3.7559,3.7597,3.7641,3.7686,3.7717,3.7771,3.7837,3.7849,3.7917,3.7966,3.8049,3.8081,3.8135,3.8125,3.8144,3.815,3.8155,3.8158,3.804,3.8146,3.8146,3.8146,3.8145,3.8145,0,3.7501,3.7534,3.7589,3.7655,3.7702,3.7701,3.7753,3.7793,3.7853,3.7899,3.7949,3.8023,3.8084,3.8124,3.8186,3.8221,3.8224,3.8236,3.8235,3.8242,3.8162,3.8145,3.8233,3.8233,3.8233,3.8233,3.8233,3.8233,3.7556,3.7631,3.765,3.7743,3.7776,3.7843,3.7874,3.7914,3.7951,3.8034,3.8084,3.811,3.8155,3.8219,3.8275,3.8286,3.8309,3.8321,3.8332,3.8257,3.8248,3.8239,3.8223,3.8326,3.8326,3.8408,3.8408,3.8409]}]]